sat.trackr.live / text

‹ back to catalog

ONEWEB-0601

NORAD 54665 · 2022-166Z

PAYLOAD ACTIVE UNKNOWN

§ Identity

Operator
Country
UK
Launch date
2022-12-08
Launch site
AFETR
Launch vehicle
Mass (kg)
RCS (m²)

Purposes: comms

External: N2YO · Heavens-Above · Gunter

§ Orbital elements

Epoch: 2026-09-19T15:42:01.271232Z

Period
108.94 min
Inclination
87.9279°
Eccentricity
0.0002425
Mean motion
13.21828114 rev/d
Perigee alt
1,175.9 km
Apogee alt
1,179.6 km
Semi-major
7,555.9 km
B*
-1.5571e-3
RAAN
225.1886°
Arg perigee
81.3409°
Mean anomaly
278.8000°
Rev number
18,418

§ Raw data

ONEWEB-06011 54665U 22166Z   26262.65418138 -.00000630  00000+0 -15571-2 0  99982 54665  87.9279 225.1886 0002425  81.3409 278.8000 13.21828114184188

JSON: /api/v1/satellites/54665 · /tle

For live sub-satellite position, see the globe view (requires WebGL).

§ Visibility from observer

Set your observer location to see the next 7 days of passes ≥ 10°. The values pass through the URL so the page stays shareable.

No JS? Fill the form by hand. The geolocation button needs JavaScript.